EW9609 Weather Reports


Display with metric or nautical units.
time (UTC)temp
F
wind
direction
speed
MPH
gust
MPH
rain 1hr
in
rain 24hr
in
rain mn
in
humidity
%
barometer
mb
20190820211807 80 231 0.0 0.0 0.00 0.00 0.00 63 1005.4
20190820210300 80 231 0.0 0.0 0.00 0.00 0.00 64 1005.5
20190820204618 80 231 0.0 0.0 0.00 0.00 0.00 64 1005.6
20190820203121 80 231 0.0 0.0 0.00 0.00 0.00 65 1005.6
20190820201717 80 231 0.0 0.0 0.00 0.00 0.00 65 1005.8
20190820200135 79 231 0.0 0.0 0.00 0.00 0.00 64 1005.9
20190820194625 79 231 0.0 0.0 0.00 0.00 0.00 64 1006.0
20190820193217 79 231 0.0 0.0 0.00 0.00 0.00 64 1006.3
20190820191552 78 231 0.0 0.0 0.00 0.00 0.00 63 1006.4
20190820184745 78 231 0.0 0.0 0.00 0.00 0.00 62 1006.6
20190820183153 77 231 0.0 0.0 0.00 0.00 0.00 62 1006.5
20190820181644 77 231 0.0 0.0 0.00 0.00 0.00 61 1006.7
20190820180054 77 231 0.0 0.0 0.00 0.00 0.00 60 1007.0
20190820174621 76 231 0.0 0.0 0.00 0.00 0.00 59 1006.8
20190820173050 76 231 0.0 0.0 0.00 0.00 0.00 58 1006.8
20190820171610 76 231 0.0 0.0 0.00 0.00 0.00 57 1006.9
20190820170126 75 231 0.0 0.0 0.00 0.00 0.00 56 1007.0
20190820164557 75 231 0.0 0.0 0.00 0.00 0.00 55 1007.2
20190820163102 75 231 0.0 0.0 0.00 0.00 0.00 55 1007.1
20190820161546 75 231 0.0 0.0 0.00 0.00 0.00 54 1007.2
20190820160031 75 231 0.0 0.0 0.00 0.00 0.00 53 1007.3
20190820154535 74 231 0.0 0.0 0.00 0.00 0.00 53 1007.2
20190820153101 74 231 0.0 0.0 0.00 0.00 0.00 52 1007.1
20190820151542 74 231 0.0 0.0 0.00 0.00 0.00 52 1007.3
20190820150114 74 231 0.0 0.0 0.00 0.00 0.00 51 1007.5
20190820144534 74 231 0.0 0.0 0.00 0.00 0.00 51 1007.1
20190820143031 74 231 0.0 0.0 0.00 0.00 0.00 50 1006.4
20190820141538 74 231 0.0 0.0 0.00 0.00 0.00 50 1005.8
20190820140014 74 231 0.0 0.0 0.00 0.00 0.00 50 1005.8
20190820134531 74 231 0.0 0.0 0.00 0.00 0.00 50 1005.7
20190820133017 74 231 0.0 0.0 0.00 0.00 0.00 50 1005.5
20190820131508 74 231 0.0 0.0 0.00 0.00 0.00 49 1005.1
20190820130012 74 231 0.0 0.0 0.00 0.00 0.00 49 1004.7
20190820124521 74 231 0.0 0.0 0.00 0.00 0.00 49 1004.9
20190820123014 74 231 0.0 0.0 0.00 0.00 0.00 49 1005.0
20190820121511 74 231 0.0 0.0 0.00 0.00 0.00 49 1005.0
20190820120157 74 231 0.0 0.0 0.00 0.00 0.00 49 1004.8
20190820114700 74 231 0.0 0.0 0.00 0.00 0.00 49 1004.7
20190820113144 75 231 0.0 0.0 0.00 0.00 0.00 49 1004.7
20190820111630 75 231 0.0 0.0 0.00 0.00 0.00 49 1004.6
20190820110139 75 231 0.0 0.0 0.00 0.00 0.00 49 1004.7
20190820104753 75 231 0.0 0.0 0.00 0.00 0.00 49 1004.6
20190820103206 75 231 0.0 0.0 0.00 0.00 0.00 49 1004.6
20190820101628 75 231 0.0 0.0 0.00 0.00 0.00 49 1004.5
20190820100129 75 231 0.0 0.0 0.00 0.00 0.00 49 1004.6
20190820094640 75 231 0.0 0.0 0.00 0.00 0.00 49 1004.6
20190820093207 75 231 0.0 0.0 0.00 0.00 0.00 49 1004.7
20190820091617 75 231 0.0 0.0 0.00 0.00 0.00 49 1004.4
20190820090147 75 231 0.0 0.0 0.00 0.00 0.00 49 1004.1
20190820084628 75 231 0.0 0.0 0.00 0.00 0.00 49 1003.8
20190820083135 76 231 0.0 0.0 0.00 0.00 0.00 49 1003.7
20190820081722 76 231 0.0 0.0 0.00 0.00 0.00 49 1003.8
20190820080208 76 231 0.0 0.0 0.00 0.00 0.00 49 1004.0
20190820074716 76 231 0.0 0.0 0.00 0.00 0.00 49 1003.9
20190820073157 76 231 0.0 0.0 0.00 0.00 0.00 49 1004.1
20190820071648 76 231 0.0 0.0 0.00 0.00 0.00 48 1003.9
20190820070122 76 231 0.0 0.0 0.00 0.00 0.00 48 1003.9
20190820064556 76 231 0.0 0.0 0.00 0.00 0.00 48 1003.9
20190820063114 76 231 0.0 0.0 0.00 0.00 0.00 48 1003.6
20190820061633 76 231 0.0 0.0 0.00 0.00 0.00 48 1003.5
20190820060039 77 231 0.0 0.0 0.00 0.00 0.00 48 1003.5
20190820054609 77 231 0.0 0.0 0.00 0.00 0.00 47 1003.7
20190820053120 77 231 0.0 0.0 0.00 0.00 0.00 47 1003.8
20190820051545 77 231 0.0 0.0 0.00 0.00 0.00 47 1003.6
20190820050033 77 231 0.0 0.0 0.00 0.00 0.00 46 1003.5
20190820044547 77 231 0.0 0.0 0.00 0.00 0.00 46 1003.5
20190820043049 78 231 0.0 0.0 0.00 0.00 0.00 44 1003.4
20190820041542 78 231 0.0 0.0 0.00 0.00 0.00 44 1003.5
20190820040035 78 231 0.0 0.0 0.00 0.00 0.00 43 1003.2
20190820034521 79 231 0.0 0.0 0.00 0.00 0.00 43 1003.1
20190820033024 79 231 0.0 0.0 0.00 0.00 0.00 40 1002.9
20190820031513 79 231 0.0 0.0 0.00 0.00 0.00 41 1002.8
20190820030014 80 231 0.0 0.0 0.00 0.00 0.00 38 1002.5
20190820024506 80 231 0.0 0.0 0.00 0.00 0.00 36 1002.2
20190820021752 80 231 0.0 0.0 0.00 0.00 0.00 37 1001.7
20190820020209 80 231 0.0 0.0 0.00 0.00 0.00 42 1001.6
20190820014700 80 231 0.0 0.0 0.00 0.00 0.00 40 1001.4
20190820013224 80 231 0.0 0.0 0.00 0.00 0.00 41 1001.2
20190820011806 80 231 0.0 0.0 0.00 0.00 0.00 42 1001.1
20190820010222 80 231 0.0 0.0 0.00 0.00 0.00 42 1000.7
20190820004851 80 231 0.0 0.0 0.00 0.00 0.00 44 1000.7
20190820003214 80 231 0.0 0.0 0.00 0.00 0.00 44 1000.7
20190820001710 80 231 0.0 0.0 0.00 0.00 0.00 46 1000.7
20190820000149 80 231 0.0 0.0 0.00 0.00 0.00 47 1000.8
20190819234633 80 231 0.0 0.0 0.00 0.00 0.00 48 1000.8
20190819233134 80 231 0.0 0.0 0.00 0.00 0.00 47 1000.8
20190819231604 80 231 0.0 0.0 0.00 0.00 0.00 46 1000.5
20190819230059 80 231 0.0 0.0 0.00 0.00 0.00 55 1000.3
20190819224620 80 231 0.0 0.0 0.00 0.00 0.00 58 1000.1
20190819223138 80 231 0.0 0.0 0.00 0.00 0.00 64 1000.0
20190819221625 80 231 0.0 0.0 0.00 0.00 0.00 71 999.9
20190819220126 80 231 0.0 0.0 0.00 0.00 0.00 72 999.9
20190819214603 80 231 0.0 0.0 0.00 0.00 0.00 72 999.8
20190819213144 80 231 0.0 0.0 0.00 0.00 0.00 72 999.9